Dashboard / TOP 100 BUKU Terbaru

NO_INV Buku Judul Buku Pengarang Tgl_Masuk
270217-07529 Pemimpin Bangsa dalam Pusaran Sejarah Sjafruddin Prawiranegara 2017-02-27 09:03:06
270217-07528 Alam Pemikiran dan Jejak Perjuangan Prawoto Mangkusasmito Bajasut 2017-02-27 09:01:11
250217-07527 Modul Mata Kuliah Histologi Ari Indriana Hapsari 2017-02-25 10:29:29
250217-07525 Anatomi Fisiologi Manusia : Desain Instruksional Ari Indriana Hapsari 2017-02-25 10:28:23
250217-07523 Proses Legislatif INU KENCANA SYAFIIE 2017-02-25 10:26:15
250217-07520 Hukum Perbankan Syariah: UU No 21 Tahun 2008 ABDUL GHOFUR ANSHORI 2017-02-25 10:24:28
250217-07517 Hukum Organisasi Perusahaan Johannes Ibrahim 2017-02-25 10:21:24
250217-07514 Hak Restitusi terhadap Korban Tindak Pidana Perdagangan Orang MARLIANA, AZMIATI ZULIAH 2017-02-25 10:19:42
250217-07511 Hukum otonomi daerah Negara Kesatuan, Daerah Istimewa dan Daerah Otnomi Khusus Rusdianto Sesung 2017-02-25 10:17:12
250217-07508 Metodologi Penelitian: Pendekatan Praktis dan aplikatif Masyhuri, Zainuddin 2017-02-25 10:13:31
250217-07505 Metode Penelitian sosial Kualitatif Yanuar Ikbar 2017-02-25 10:11:21
250217-07502 Metode dan Masalah Penelitian Sosial Black James, Champion Dean 2017-02-25 10:08:49
250217-07499 Komunikasi Pemerintahan Erliana Hasan 2017-02-25 10:06:28
250217-07496 Histografi di Indonesia: Dari Magis Religius Hingga Strukturis Agus Mulyana, Darmiasti 2017-02-25 10:04:22
250217-07493 Hubungan Internasional Kontemporer dan Masalah-Masalah Global MAY RUDY 2017-02-25 10:01:49
250217-07490 Dinamika Kelompok: Konsep dan Aplikasi Abu Huraerah, Purwanto 2017-02-25 09:59:45
250217-07487 Pengantar Kesejahteraan Sosial Adi Fahrudin 2017-02-25 09:57:10
250217-07484 Komunikasi Terapeutik dalam Praktik Keperawatan MUKHRIPAH DAMAIYANTI 2017-02-25 09:46:03
250217-07481 Abortus Berulang Budi Handono, Firman, Johanes 2017-02-25 09:43:52
250217-07478 Atlas Spermatologi Herman Wibisono 2017-02-25 09:40:21
250217-07475 Tax Amnesty di Indonesia Zainal Muttaqin 2017-02-25 09:37:41
250217-07472 Pedoman Praktis Manajemen Mesin Industri Ating Sudrajat 2017-02-25 09:35:54
250217-07469 Elemen Mesin I Zainun Achmad 2017-02-25 09:33:10
250217-07466 Psikolinguistik: Suatu Pengantar SAMSUNUWIYATI 2017-02-25 09:30:41
250217-07463 Perilaku Manusia: Pengantar Singkat Tentang Psikologi Samsunuwiyati, Lieke Indieningsih 2017-02-25 09:27:44
250217-07460 Psikologi Anak Luar Biasa Sutjihati Somantri 2017-02-25 09:15:09
250217-07457 Psikologi Marah: Perspektif Psikologi Islami Yadi Purwanto, Rachmat Mulyono 2017-02-25 09:12:49
250217-07454 Strategi Layanan Bimbingan dan Konseling Achmad Juntika Nurihsan 2017-02-25 09:10:08
250217-07448 Psikiatri: Konsep Dsar-Dsar Gangguan-Gangguan Baihaqi, Sunardi, Riksma Ridalti, Euis Heryati 2017-02-25 09:06:10
250217-07445 Pengantar Psikologi Abnormal Sutardjo Wiramihardja 2017-02-25 09:03:45
250217-07442 Bahasa Fortran: Dari Fortran IV hingga Fortran Powerstation Bambang Suryoatmono 2017-02-25 09:00:43
250217-07439 Teknologi Pencahayaan Muhaimin 2017-02-25 08:57:31
250217-07436 Studi Sistem Hukum Indonesia: untuk kompetensi bidang ilmu sosial dan ilmu politik dalam payung pancasila Faried Ali, Anwar Sulaima, Femmy Silaswaty 2017-02-25 08:55:00
240217-07433 Psikologi Kepribadian: Integrasi Nafsiyah dan Aqliyah Perspektif Psikologi Islami Yadi Purwanto 2017-02-24 12:23:21
240217-07430 Teori dan Praktek Konseling dan Psikoterapi Corey Gerald 2017-02-24 12:21:04
240217-07427 Pelayanan Kedaruratan Neonatal Sjarif Hidajat Effendi 2017-02-24 12:14:25
240217-07424 Perkembangan Peradilan Pajak di Indonesia Dewi Kania Sugiharti 2017-02-24 12:11:56
240217-07421 Yurisdiksi Tindak Pidana Siber Sigid Suseno 2017-02-24 12:09:56
240217-07418 Statistika untuk Psikologi dan Pendidikan Tedjo Reksoatmodjo 2017-02-24 12:07:49
240217-07415 Pedoman Standar Pelayanan Medik dan Standar Prosedur Operasional Neurologi Yoseph Budiman 2017-02-24 11:59:46
240217-07412 Dasar-Dasar Hukum Kontrak Internasional Huala Adolf 2017-02-24 11:57:38
240217-07409 Cyber Law dan HAKI dalam Sistem hukum Indonesia Ahmad Ramli 2017-02-24 11:55:23
240217-07406 Cyber Notary: Pemahaman awal Dalam Konsep Pemikiran Emma Nurita 2017-02-24 11:53:32
240217-07403 Alasan Penghapus Pidana: Teori dan Studi Kasus Hamdan 2017-02-24 11:51:01
240217-07400 Cyber Law Sinta Dewi Rosadi 2017-02-24 11:48:12
240217-07397 Seluk Beluk Perusahaan dan Hukum Perusahaan Tuti Rastuti 2017-02-24 11:46:14
240217-07394 Perlindungan Terhadap Korban Kekerasan Seksual: Advokasi atas Hak Asasi Perempuan Muhammad Tholchah Hasan 2017-02-24 11:44:22
240217-07391 Perbandingan Tindak Pidana Pemilu Legislatif dalam Perspektif Hukum di Indonesia DEDI MULAYADI 2017-02-24 11:41:44
240217-07388 Akuntansi Biaya: Conventional Costing, Just in time dan activity Based Costing Mursyidi 2017-02-24 11:38:15
240217-07385 Kriminologi Administrasi dalam Pemerintahan Makmur 2017-02-24 11:35:51